| time (UTC) | temp F | wind direction | speed knots | gust knots | rain 1hr in | rain 24hr in | rain mn in | humidity % | barometer mb |
| 20260901114523 | 53 | 211 | 3.5 | 9.6 | 0.00 | 0.00 | 0.00 | 75 | 1017.7 |
| 20260901113020 | 53 | 198 | 2.6 | 8.7 | 0.00 | 0.00 | 0.00 | 75 | 1017.7 |
| 20260901111519 | 53 | 257 | 4.3 | 11.3 | 0.00 | 0.00 | 0.00 | 75 | 1017.6 |
| 20260901110016 | 53 | 219 | 3.5 | 10.4 | 0.00 | 0.00 | 0.00 | 76 | 1017.5 |
| 20260901104513 | 53 | 274 | 2.6 | 8.7 | 0.00 | 0.00 | 0.00 | 76 | 1017.5 |
| 20260901103011 | 53 | 216 | 4.3 | 11.3 | 0.00 | 0.00 | 0.00 | 75 | 1017.4 |
| 20260901101510 | 53 | 205 | 3.5 | 8.7 | 0.00 | 0.00 | 0.00 | 76 | 1017.3 |
| 20260901100010 | 53 | 207 | 2.6 | 9.6 | 0.00 | 0.00 | 0.00 | 76 | 1017.3 |
| 20260901094516 | 54 | 228 | 2.6 | 13.9 | 0.00 | 0.00 | 0.00 | 74 | 1017.2 |
| 20260901093006 | 54 | 190 | 3.5 | 7.0 | 0.00 | 0.00 | 0.00 | 75 | 1017.2 |
| 20260901091506 | 53 | 249 | 2.6 | 12.2 | 0.00 | 0.00 | 0.00 | 75 | 1017.3 |
| 20260901090008 | 54 | 166 | 2.6 | 9.6 | 0.00 | 0.00 | 0.00 | 76 | 1017.2 |
| 20260901084504 | 54 | 270 | 3.5 | 9.6 | 0.00 | 0.00 | 0.00 | 75 | 1017.2 |
| 20260901083059 | 54 | 193 | 2.6 | 8.7 | 0.00 | 0.00 | 0.00 | 75 | 1016.9 |
| 20260901081557 | 54 | 274 | 3.5 | 0.0 | 0.00 | 0.00 | 0.00 | 74 | 1016.8 |
| 20260901080055 | 54 | 271 | 4.3 | 11.3 | 0.00 | 0.00 | 0.00 | 72 | 1016.9 |
| 20260901074552 | 54 | 212 | 4.3 | 8.7 | 0.00 | 0.00 | 0.00 | 70 | 1016.6 |
| 20260901073051 | 54 | 214 | 4.3 | 8.7 | 0.00 | 0.00 | 0.00 | 70 | 1016.4 |
| 20260901071558 | 54 | 216 | 3.5 | 8.7 | 0.00 | 0.00 | 0.00 | 70 | 1016.5 |
| 20260901070046 | 55 | 208 | 3.5 | 9.6 | 0.00 | 0.00 | 0.00 | 70 | 1016.4 |
| 20260901064544 | 55 | 159 | 3.5 | 9.6 | 0.00 | 0.00 | 0.00 | 70 | 1016.0 |
| 20260901063043 | 55 | 219 | 2.6 | 7.0 | 0.00 | 0.00 | 0.00 | 70 | 1016.0 |
| 20260901061543 | 56 | 252 | 2.6 | 8.7 | 0.00 | 0.00 | 0.00 | 71 | 1015.8 |
| 20260901060039 | 56 | 191 | 1.7 | 6.1 | 0.00 | 0.00 | 0.00 | 71 | 1015.6 |
| 20260901054538 | 56 | 252 | 3.5 | 13.0 | 0.00 | 0.00 | 0.00 | 70 | 1015.3 |
| 20260901053042 | 57 | 294 | 2.6 | 10.4 | 0.00 | 0.00 | 0.00 | 70 | 1015.1 |
| 20260901051534 | 58 | 238 | 3.5 | 13.9 | 0.00 | 0.00 | 0.00 | 66 | 1015.1 |
| 20260901050034 | 59 | 259 | 4.3 | 9.6 | 0.00 | 0.00 | 0.00 | 64 | 1014.8 |
| 20260901044533 | 60 | 319 | 4.3 | 14.8 | 0.00 | 0.00 | 0.00 | 61 | 1014.8 |
| 20260901043030 | 60 | 211 | 4.3 | 12.2 | 0.00 | 0.00 | 0.00 | 59 | 1014.5 |
| 20260901041529 | 60 | 212 | 5.2 | 11.3 | 0.00 | 0.00 | 0.00 | 58 | 1014.3 |
| 20260901040029 | 61 | 204 | 3.5 | 9.6 | 0.00 | 0.00 | 0.00 | 60 | 1014.3 |
| 20260901034532 | 61 | 304 | 3.5 | 9.6 | 0.00 | 0.00 | 0.00 | 60 | 1014.3 |
| 20260901033026 | 61 | 231 | 6.1 | 17.4 | 0.00 | 0.00 | 0.00 | 59 | 1014.2 |
| 20260901031526 | 62 | 210 | 3.5 | 10.4 | 0.00 | 0.00 | 0.00 | 57 | 1014.1 |
| 20260901030027 | 62 | 246 | 2.6 | 10.4 | 0.00 | 0.00 | 0.00 | 56 | 1013.8 |
| 20260901024524 | 62 | 232 | 4.3 | 14.8 | 0.00 | 0.00 | 0.00 | 55 | 1013.6 |
| 20260901023031 | 62 | 217 | 5.2 | 14.8 | 0.00 | 0.00 | 0.00 | 54 | 1013.4 |
| 20260901021524 | 62 | 177 | 3.5 | 13.9 | 0.00 | 0.00 | 0.00 | 56 | 1013.3 |
| 20260901020022 | 62 | 267 | 4.3 | 16.5 | 0.00 | 0.00 | 0.00 | 59 | 1013.4 |
| 20260901014519 | 62 | 221 | 3.5 | 10.4 | 0.00 | 0.02 | 0.00 | 61 | 1013.4 |
| 20260901013019 | 62 | 174 | 6.1 | 13.9 | 0.00 | 0.02 | 0.00 | 60 | 1013.5 |
| 20260901011517 | 62 | 210 | 4.3 | 13.0 | 0.00 | 0.02 | 0.00 | 61 | 1013.5 |
| 20260901010016 | 61 | 222 | 4.3 | 12.2 | 0.00 | 0.02 | 0.00 | 62 | 1013.7 |
| 20260901004514 | 61 | 220 | 5.2 | 14.8 | 0.00 | 0.02 | 0.00 | 62 | 1014.0 |
| 20260901003016 | 61 | 241 | 5.2 | 15.6 | 0.00 | 0.02 | 0.00 | 60 | 1014.2 |
| 20260901001512 | 61 | 195 | 6.1 | 15.6 | 0.00 | 0.02 | 0.00 | 60 | 1014.3 |
| 20260901000010 | 61 | 250 | 4.3 | 13.9 | 0.00 | 0.02 | 0.00 | 62 | 1014.3 |
| 20260831234509 | 60 | 281 | 4.3 | 13.0 | 0.00 | 0.02 | 0.00 | 63 | 1014.4 |
| 20260831233011 | 60 | 188 | 3.5 | 13.9 | 0.00 | 0.02 | 0.00 | 63 | 1014.3 |
| 20260831231505 | 59 | 212 | 3.5 | 14.8 | 0.00 | 0.02 | 0.00 | 65 | 1014.1 |
| 20260831230005 | 59 | 285 | 4.3 | 13.0 | 0.00 | 0.02 | 0.00 | 63 | 1013.9 |
| 20260831224501 | 59 | 256 | 4.3 | 14.8 | 0.00 | 0.02 | 0.00 | 63 | 1013.8 |
| 20260831223100 | 58 | 229 | 6.1 | 15.6 | 0.00 | 0.02 | 0.00 | 63 | 1014.0 |
| 20260831221557 | 58 | 290 | 3.5 | 17.4 | 0.00 | 0.02 | 0.00 | 64 | 1013.9 |
| 20260831220055 | 58 | 167 | 6.1 | 20.0 | 0.00 | 0.02 | 0.00 | 63 | 1014.0 |
| 20260831214600 | 58 | 215 | 4.3 | 13.0 | 0.00 | 0.02 | 0.00 | 65 | 1013.9 |
| 20260831213054 | 57 | 217 | 3.5 | 11.3 | 0.00 | 0.02 | 0.00 | 67 | 1013.5 |
| 20260831211552 | 57 | 285 | 7.0 | 12.2 | 0.00 | 0.02 | 0.00 | 66 | 1013.2 |
| 20260831210046 | 57 | 273 | 3.5 | 9.6 | 0.00 | 0.02 | 0.00 | 66 | 1013.0 |
| 20260831204542 | 56 | 204 | 4.3 | 10.4 | 0.00 | 0.02 | 0.00 | 66 | 1012.8 |
| 20260831203038 | 56 | 170 | 1.7 | 6.1 | 0.00 | 0.02 | 0.00 | 69 | 1012.7 |
| 20260831201537 | 55 | 176 | 1.7 | 5.2 | 0.00 | 0.02 | 0.00 | 69 | 1012.6 |
| 20260831200037 | 54 | 172 | 3.5 | 7.0 | 0.00 | 0.02 | 0.00 | 70 | 1012.5 |
| 20260831194542 | 54 | 208 | 0.9 | 6.1 | 0.00 | 0.02 | 0.00 | 73 | 1012.3 |
| 20260831193033 | 53 | 165 | 3.5 | 7.0 | 0.00 | 0.02 | 0.00 | 72 | 1012.1 |
| 20260831191535 | 53 | 198 | 1.7 | 7.0 | 0.00 | 0.02 | 0.00 | 72 | 1012.0 |
| 20260831190029 | 53 | 245 | 4.3 | 11.3 | 0.00 | 0.02 | 0.00 | 72 | 1011.7 |
| 20260831184527 | 53 | 187 | 2.6 | 8.7 | 0.00 | 0.02 | 0.00 | 73 | 1011.4 |
| 20260831183025 | 53 | 212 | 0.9 | 4.3 | 0.00 | 0.02 | 0.00 | 74 | 1011.3 |
| 20260831181522 | 54 | 132 | 0.0 | 1.7 | 0.00 | 0.02 | 0.00 | 74 | 1010.9 |
| 20260831180019 | 54 | 338 | 0.9 | 7.0 | 0.00 | 0.02 | 0.00 | 74 | 1010.6 |
| 20260831174517 | 54 | 117 | 0.9 | 5.2 | 0.00 | 0.02 | 0.00 | 74 | 1010.2 |
| 20260831173015 | 54 | 83 | 0.9 | 7.8 | 0.00 | 0.02 | 0.00 | 73 | 1009.8 |
| 20260831171513 | 54 | 201 | 2.6 | 6.1 | 0.00 | 0.02 | 0.00 | 76 | 1009.7 |
| 20260831170012 | 54 | 116 | 0.9 | 5.2 | 0.00 | 0.02 | 0.00 | 75 | 1009.4 |
| 20260831164511 | 54 | 98 | 0.9 | 4.3 | 0.00 | 0.02 | 0.00 | 75 | 1009.4 |
| 20260831163013 | 55 | 150 | 0.0 | 8.7 | 0.00 | 0.02 | 0.00 | 74 | 1009.4 |
| 20260831161524 | 55 | 80 | 2.6 | 5.2 | 0.00 | 0.02 | 0.00 | 74 | 1009.0 |
| 20260831160014 | 55 | 270 | 1.7 | 5.2 | 0.00 | 0.02 | 0.00 | 74 | 1009.4 |
| 20260831154505 | 55 | 146 | 0.0 | 8.7 | 0.00 | 0.02 | 0.00 | 74 | 1009.2 |
| 20260831153004 | 55 | 354 | 3.5 | 7.8 | 0.00 | 0.02 | 0.00 | 74 | 1009.3 |
| 20260831151503 | 55 | 235 | 3.5 | 12.2 | 0.00 | 0.02 | 0.00 | 76 | 1009.5 |
| 20260831150003 | 56 | 150 | 0.0 | 8.7 | 0.00 | 0.02 | 0.00 | 76 | 1009.0 |
| 20260831144607 | 55 | 149 | 4.3 | 7.8 | 0.00 | 0.02 | 0.00 | 78 | 1009.4 |
| 20260831143108 | 55 | 356 | 2.6 | 7.8 | 0.00 | 0.02 | 0.00 | 78 | 1009.2 |
| 20260831141558 | 55 | 120 | 1.7 | 3.5 | 0.00 | 0.02 | 0.00 | 78 | 1008.9 |
| 20260831140056 | 55 | 113 | 0.9 | 2.6 | 0.00 | 0.02 | 0.00 | 78 | 1009.1 |
| 20260831134554 | 55 | 240 | 2.6 | 5.2 | 0.00 | 0.02 | 0.00 | 80 | 1008.8 |
| 20260831133052 | 55 | 75 | 0.9 | 5.2 | 0.00 | 0.02 | 0.00 | 80 | 1008.6 |
| 20260831131555 | 55 | 162 | 1.7 | 7.0 | 0.00 | 0.02 | 0.00 | 79 | 1008.5 |
| 20260831124548 | 55 | 86 | 1.7 | 8.7 | 0.00 | 0.02 | 0.00 | 77 | 1008.5 |
| 20260831123048 | 55 | 48 | 0.9 | 4.3 | 0.00 | 0.02 | 0.00 | 77 | 1008.7 |
| 20260831121546 | 56 | 160 | 1.7 | 5.2 | 0.00 | 0.02 | 0.00 | 77 | 1008.5 |
| 20260831120044 | 56 | 84 | 0.9 | 4.3 | 0.00 | 0.02 | 0.00 | 77 | 1008.6 |